FW3123 Weather Reports


Display with metric or nautical units.
time (UTC)temp
F
wind
direction
speed
MPH
gust
MPH
rain 1hr
in
rain 24hr
in
rain mn
in
humidity
%
barometer
mb
20260506003051 54 305 1.0 3.0 0.00 0.00 0.00 40 1011.7
20260506001553 55 309 1.0 5.0 0.00 0.00 0.00 38 1011.5
20260506000051 55 304 2.0 7.0 0.00 0.00 0.00 36 1011.5
20260505234549 56 310 5.0 9.0 0.00 0.00 0.00 35 1011.7
20260505233055 56 335 3.0 12.0 0.00 0.00 0.00 36 1011.6
20260505231549 56 333 4.0 13.0 0.00 0.00 0.00 34 1011.6
20260505230050 57 335 5.0 10.0 0.00 0.00 0.00 33 1011.7
20260505224549 57 309 3.0 16.0 0.00 0.00 0.00 33 1011.7
20260505223050 57 270 10.0 16.0 0.00 0.00 0.00 32 1011.7
20260505221547 57 293 3.0 14.0 0.00 0.00 0.00 33 1011.8
20260505220046 57 322 8.0 14.0 0.00 0.00 0.00 33 1011.9
20260505214546 57 290 7.0 13.0 0.00 0.00 0.00 33 1011.7
20260505213047 58 268 6.0 16.0 0.00 0.00 0.00 32 1011.7
20260505211545 57 269 6.0 18.0 0.00 0.00 0.00 32 1011.6
20260505210044 57 341 7.0 13.0 0.00 0.00 0.00 31 1011.8
20260505204544 57 309 8.0 17.0 0.00 0.00 0.00 31 1011.7
20260505203143 57 239 10.0 18.0 0.00 0.00 0.00 29 1011.8
20260505201545 57 302 7.0 16.0 0.00 0.00 0.00 30 1011.9
20260505200041 58 281 8.0 20.0 0.00 0.00 0.00 29 1011.9
20260505194548 58 304 11.0 21.0 0.00 0.00 0.00 28 1012.0
20260505193100 58 269 12.0 21.0 0.00 0.00 0.00 28 1012.3
20260505191542 57 271 10.0 19.0 0.00 0.00 0.00 29 1012.1
20260505190041 57 248 11.0 19.0 0.00 0.00 0.00 31 1012.1
20260505184538 57 290 11.0 20.0 0.00 0.00 0.00 30 1012.2
20260505183037 58 296 11.0 20.0 0.00 0.00 0.00 32 1012.1
20260505181535 57 328 8.0 23.0 0.00 0.00 0.00 30 1011.8
20260505180039 56 265 11.0 18.0 0.00 0.00 0.00 32 1011.6
20260505174534 56 276 12.0 18.0 0.00 0.00 0.00 32 1011.5
20260505173032 56 279 9.0 16.0 0.00 0.00 0.00 33 1011.5
20260505171536 56 284 11.0 19.0 0.00 0.00 0.00 32 1011.7
20260505170034 56 283 9.0 19.0 0.00 0.00 0.00 34 1011.4
20260505164537 57 277 6.0 17.0 0.00 0.00 0.00 36 1011.2
20260505163036 56 274 8.0 16.0 0.00 0.00 0.00 33 1011.4
20260505161531 56 303 10.0 18.0 0.00 0.00 0.00 35 1011.5
20260505153034 52 281 5.0 9.0 0.00 0.00 0.00 43 1011.5
20260505151528 51 262 7.0 12.0 0.00 0.00 0.00 42 1011.9
20260505124510 48 304 5.0 11.0 0.00 0.00 0.00 46 1011.3
20260505123008 48 322 2.0 11.0 0.00 0.00 0.00 47 1011.3
20260505121506 48 306 4.0 9.0 0.00 0.00 0.00 48 1011.2
20260505120003 47 302 5.0 9.0 0.00 0.00 0.00 49 1011.3
20260505114600 0 0.0 0.0 0.00 0.00 0.00 1010.3
20260505113059 0 0.0 0.0 0.00 0.00 0.00 1009.9
20260505111551 0 0.0 0.0 0.00 0.00 0.00 1009.3
20260505101536 0 0.0 0.0 0.00 0.00 0.00 1009.0
20260505100031 0 0.0 0.0 0.00 0.00 0.00 1008.9
20260505094525 0 0.0 0.0 0.00 0.00 0.00 1009.0
20260505093020 0 0.0 0.0 0.00 0.00 0.00 1008.7
20260505091519 50 5 5.0 15.0 0.00 0.00 0.00 1008.6
20260505090012 50 316 7.0 16.0 0.00 0.00 0.00 49 1008.5
20260505084513 51 337 12.0 21.0 0.00 0.00 0.00 48 1008.0
20260505083015 51 349 9.0 14.0 0.00 0.00 0.00 51 1007.7
20260505081502 52 302 6.0 12.0 0.00 0.00 0.00 52 1007.2
20260505080105 52 330 4.0 10.0 0.00 0.00 0.00 52 1007.1
20260505074556 53 355 4.0 6.0 0.00 0.00 0.00 51 1006.5
20260505073059 54 320 4.0 12.0 0.00 0.00 0.00 49 1006.5
20260505071600 55 309 5.0 11.0 0.00 0.00 0.00 48 1006.1
20260505070051 55 275 3.0 14.0 0.00 0.00 0.00 47 1006.0
20260505064541 56 318 5.0 16.0 0.00 0.00 0.00 45 1005.7
20260505063041 57 313 8.0 17.0 0.00 0.00 0.00 42 1005.6
20260505061534 58 298 5.0 12.0 0.00 0.00 0.00 41 1005.1
20260505060052 59 322 5.0 15.0 0.00 0.00 0.00 41 1005.2
20260505054528 59 304 3.0 8.0 0.00 0.00 0.00 42 1005.2
20260505053024 60 295 4.0 11.0 0.00 0.00 0.00 38 1005.0
20260505051521 60 292 8.0 13.0 0.00 0.00 0.00 36 1004.3
20260505041514 63 277 5.0 10.0 0.00 0.00 0.00 37 1003.9
20260505040020 63 306 5.0 15.0 0.00 0.00 0.00 37 1003.5
20260505034513 64 318 7.0 15.0 0.00 0.00 0.00 38 1003.1
20260505033015 65 299 4.0 11.0 0.00 0.00 0.00 40 1002.7
20260505031512 66 331 6.0 17.0 0.00 0.00 0.00 39 1002.9
20260505030012 68 321 8.0 19.0 0.00 0.00 0.00 38 1002.8
20260505024511 69 355 6.0 17.0 0.00 0.00 0.00 38 1002.6
20260505023010 70 278 9.0 20.0 0.00 0.00 0.00 38 1002.1
20260505021509 70 275 7.0 12.0 0.00 0.00 0.00 45 1001.8
20260505020009 70 267 4.0 9.0 0.00 0.00 0.00 46 1001.5
20260505014513 71 234 5.0 19.0 0.00 0.00 0.00 44 1000.7
20260505013007 71 245 4.0 11.0 0.00 0.00 0.00 44 1000.4
20260505011507 71 191 5.0 12.0 0.00 0.00 0.00 44 999.9
20260505010006 71 190 4.0 8.0 0.00 0.00 0.00 43 999.7
20260505004508 72 227 2.0 8.0 0.00 0.00 0.00 42 999.2